Zurück zum Katalog

KUIPER-00205

AktivKommunikationLEO
NORAD 67774·PAYLOAD·🇺🇸 United States

Gestartet Feb 12, 2026 von Guiana Space Centre

Loading…

Nächste Überflüge (nächste 24 Stunden)

TLE

AktuellSource: CelesTrak SupGP

Epoche: Sep 14, 2026, 13:40 UTC

1 67774C 26030L   26257.56952546 -.00018552  00000+0 -24289-2 0  2572
2 67774  51.8996  67.8737 0000679 101.7618 101.6015 14.79944044    16

Verfolge KUIPER-00205 in Echtzeit mit AllMySat

Download on the App Store